Terug naar catalogus

STARLINK-1478

ActiefCommunicatieVLEO
NORAD 45755·PAYLOAD·🇺🇸 United States

Gelanceerd Jun 13, 2020 vanaf Cape Canaveral Space Force Station

Loading…

Volgende Passages (komende 24 uur)

TLE

VersSource: CelesTrak SupGP

Epoch: Sep 15, 2026, 01:14 UTC

1 45755C 20038AB  26258.05187500  .00178480  00000+0  65002-3 0  2589
2 45755  53.0395 341.0829 0004293 337.8360  84.1625 15.87629126    12

Volg STARLINK-1478 in realtime met AllMySat

Download on the App Store